Regional Weather Roundup
Issued by NWS

Home | Current Version | Previous Version | Text Only | Print | Product List | Glossary On
Versions: 1 2 3 4 5 6 7 8 9 10 11 12 13 14 15 16 17 18 19 20 21 22 23 24 25 26 27 28 29 30 31 32 33 34 35 36 37 38 39 40 41 42 43 44 45 46 47 48 49 50
000
ASUS43 KMKX 230510
RWRWI

WISCONSIN REGIONAL WEATHER ROUNDUP
NATIONAL WEATHER SERVICE MILWAUKEE/SULLIVAN WI
1200 AM CDT MON APR 23 2018

NOTE: "FAIR" INDICATES FEW OR NO CLOUDS BELOW 12,000 FEET WITH NO
SIGNIFICANT WEATHER AND/OR OBSTRUCTIONS TO VISIBILITY.

WIZ001-002-006>008-014>016-023>028-230600-
NORTHWEST WISCONSIN

CITY           SKY/WX    TMP DP  RH WIND       PRES   REMARKS
SUPERIOR ARPT  FAIR      33  28  82 CALM      30.24S
ASHLAND        FAIR      31  23  72 S3        30.24F
HAYWARD        FAIR      33  26  75 CALM      30.26S
SIREN          FAIR      36  29  76 CALM      30.25S
CUMBERLAND     FAIR      41  28  60 CALM      30.25S
RICE LAKE      FAIR      35  32  88 CALM      30.28R
CHETEK         FAIR      39  29  67 E8        30.26S WCI  33
LADYSMITH      FAIR      41  27  56 SE3       30.28S
EAU CLAIRE     FAIR      45  26  47 CALM      30.25F
MENOMONIE      FAIR      46  32  57 E3        30.26S
NEW RICHMOND   FAIR      38  33  81 CALM      30.25S
OSCEOLA        FAIR      39  32  78 CALM      30.28S
$$

WIZ003>005-009-010-017-018-230600-
NORTH CENTRAL WISCONSIN

CITY           SKY/WX    TMP DP  RH WIND       PRES   REMARKS
MANITOWISH WTR FAIR      35  26  67 CALM      30.26S
ARBOR VITAE    FAIR      42  19  40 CALM      30.26S
WOODRUFF       FAIR      42  19  40 CALM      30.26S
RHINELANDER    FAIR      38  19  46 S3        30.28S
EAGLE RIVER    FAIR      32  21  63 CALM      30.27S
LAND O LAKES   FAIR      32  22  67 CALM      30.29R
PHILLIPS       FAIR      35  27  70 CALM      30.26S
TOMAHAWK       FAIR      30  22  72 CALM      30.28F
MEDFORD        FAIR      40  20  45 SE3       30.27S
MERRILL          N/A     31  21  67 NE3       30.29F
$$

WIZ029-030-035-036-043>047-230600-
CENTRAL WISCONSIN

CITY           SKY/WX    TMP DP  RH WIND       PRES   REMARKS
WAUSAU         FAIR      36  20  52 CALM      30.27S
MOSINEE        FAIR      41  18  38 E5        30.29S
MARSHFIELD     FAIR      43  21  41 CALM      30.26F
STEVENS POINT  FAIR      31  23  72 CALM      30.29S
WAUPACA        FAIR      36  31  82 CALM      30.29S
WAUTOMA        FAIR      33  27  78 CALM      30.28F
WISC RAPIDS    FAIR      39  23  52 CALM      30.29S
CAMP DOUGLAS   FAIR      33  29  85 CALM      30.27S
$$

WIZ011>013-019>022-031-037>040-048>050-230600-
NORTHEAST WISCONSIN

CITY           SKY/WX    TMP DP  RH WIND       PRES   REMARKS
ANTIGO         FAIR      35  25  66 CALM      30.29S
SHAWANO        FAIR      35  28  73 CALM      30.30S
OCONTO         FAIR      32  26  77 CALM      30.31S
STURGEON BAY   NOT AVBL
GREEN BAY      FAIR      38  31  76 CALM      30.30F
MANITOWOC      FAIR      36  31  82 CALM      30.31F
APPLETON       FAIR      45  23  42 CALM      30.27F
CLINTONVILLE   FAIR      33  26  74 CALM      30.29F
OSHKOSH        FAIR      42  30  62 CALM      30.28F
$$

WIZ032>034-041-042-053>061-230600-
SOUTHWEST WISCONSIN

CITY           SKY/WX    TMP DP  RH WIND       PRES   REMARKS
LA CROSSE      FAIR      47  30  51 E6        30.25F
SPARTA         FAIR      32  27  81 CALM      30.27F
VIROQUA        FAIR      44  31  61 E7        30.25S
BOSCOBEL       FAIR      40  32  73 CALM      30.25S
PRAIRIE DU CHI FAIR      50  29  44 SE3       30.24S
PLATTEVILLE    FAIR      45  31  59 NE8       30.23S
$$

WIZ056-057-062-063-064-067-068-230600-
SOUTH CENTRAL WISCONSIN

CITY           SKY/WX    TMP DP  RH WIND       PRES   REMARKS
REEDSBURG      FAIR      41  28  60 CALM      30.26S
BARABOO/DELLS  FAIR      37  28  69 CALM      30.26S
LONE ROCK      FAIR      39  33  79 CALM      30.25S
MINERAL POINT  FAIR      48  28  46 E7        30.24S
MADISON        FAIR      40  28  62 CALM      30.25F
MIDDLETON      FAIR      38  33  82 CALM      30.26S
WATERTOWN      FAIR      38  27  64 E5        30.26S WCI  35
MONROE         FAIR      46  25  42 E8        30.23S
JANESVILLE     FAIR      43  28  56 E9        30.24F
$$

WIZ051-052-058>065-066-070>072-230600-
SOUTHEAST WISCONSIN

CITY           SKY/WX    TMP DP  RH WIND       PRES   REMARKS
MILWAUKEE      FAIR      43  26  51 CALM      30.27F
WAUKESHA       FAIR      37  25  60 NE6       30.27F WCI  33
MILWAUKEE/TIMM FAIR      37  23  56 N3        30.28F
RACINE         FAIR      42  26  53 NE9       30.27F
BURLINGTON     FAIR      40  26  59 CALM      30.25F
KENOSHA        FAIR      39  27  62 NE6       30.25F WCI  35
FOND DU LAC    FAIR      41  27  57 E5        30.28F
SHEBOYGAN      FAIR      37  26  64 N6        30.29F WCI  32
WEST BEND      FAIR      34  27  75 CALM      30.28F
JUNEAU         FAIR      42  26  52 NE3       30.27F
$$

LSZ147-162-230600-
LAKE SUPERIOR

STATION/POSITION TIME  TEMP    WIND        PRES    WAVE
                       AIR SEA DIR/SP/G            HT/PER
                 (UTC) (F)     (DEG/KT/KT) (MB)    (FT/S)
DEVILS ISLAND    0500   48     190/  4/  5 1024.0F
SAXON HARBOR     0430   32     180/  2/  2 1023.7S
$$

LMZ867-665-643>646-230600-
LAKE MICHIGAN

STATION/POSITION TIME  TEMP    WIND        PRES    WAVE
                       AIR SEA DIR/SP/G            HT/PER
                 (UTC) (F)     (DEG/KT/KT) (MB)    (FT/S)
NORTHPORT PIER   0440   38                 1026.4S
KEWAUNEE LAKESHO 0448   34     310/  3/  4 1025.6F
SHEBOYGAN LAKESH 0500   42      10/ 11/ 11 1026.1F
PORT WASHINGTON  0440   43     350/  5/  7 1026.4F
MILWAUKEE LAKESH 0430   44     350/  5/  6   N/A
KENOSHA   LAKESH 0500   42                 1024.4
$$

TC  - TEMPERATURE IN CELSIUS
VSB - VISIBILITY IN STATUTE MILES
WCI - WIND CHILL INDEX
HX  - HEAT INDEX




USA.gov is the U.S. government's official web portal to all federal, state and local government web resources and services.